Weather History for Superior, WI

Change the Weather History Date:

Wednesday, March 12, 2014

  Actual Average Record
Temperature  
Mean Temperature 16 °F -  
Max Temperature 27 °F 32 °F 51 °F (2007)
Min Temperature 4 °F 17 °F -14 °F (1950)
Degree Days  
Heating Degree Days 50    
Moisture  
Dew Point 6 °F    
Average Humidity 70    
Maximum Humidity 92    
Minimum Humidity 54    
Precipitation  
Precipitation 0.00 in - - ()
Sea Level Pressure  
Sea Level Pressure 30.12 in    
Wind  
Wind Speed 9 mph (ENE)    
Max Wind Speed 15 mph    
Max Gust Speed 22 mph    
Visibility 9 miles    
Events Snow    
Averages and records for this station are not official NWS values.
T = Trace of Precipitation, MM = Missing Value Source: NWS Daily Summary

Daily Weather History Graph

Daily Weather History Graph

Search for Another Location

Airport:

Trip Planner

Search our weather history database for the weather conditions in past years. The results will help you decide how hot, cold, wet, or windy it might be!

Date:

Astronomy

Mar. 12, 2014 Rise Set
Actual Time 7:26 AM CDT 7:09 PM CDT
Civil Twilight 6:56 AM CDT 7:40 PM CDT
Nautical Twilight 6:21 AM CDT 8:15 PM CDT
Astronomical Twilight 5:46 AM CDT 8:51 PM CDT
Moon 3:30 PM CDT (3/12) 5:09 AM CDT (3/12)
Length of Visible Light 12h 43m
Length of Day
11h 42m
Waxing Gibbous, 85% of the Moon is Illuminated
Mar 12
Waxing Gibbous
Mar 16
Full
Mar 23
Last Quarter
Mar 30
New
Apr 7
First Quarter

Hourly Weather History & Observations

Time (CDT) Temp. Windchill Dew Point Humidity Pressure Visibility Wind Dir Wind Speed Gust Speed Precip Events Conditions
12:15 AM 27.1 °F 18.2 °F 16.9 °F 65% 30.03 in 10.0 mi NNW 9.2 mph - N/A   Overcast
12:35 AM 27.1 °F 18.2 °F 16.3 °F 64% 30.03 in 10.0 mi NNW 9.2 mph - N/A   Overcast
12:55 AM 27.3 °F 17.7 °F 14.5 °F 59% 30.03 in 10.0 mi North 10.4 mph - N/A   Overcast
1:15 AM 26.6 °F 14.7 °F 17.8 °F 69% 30.04 in 10.0 mi NE 15.0 mph 21.9 mph N/A   Overcast
1:35 AM 23.0 °F 10.6 °F 21.0 °F 92% 30.05 in 0.8 mi ENE 13.8 mph 20.7 mph N/A Snow Snow
1:55 AM 22.1 °F 9.5 °F 19.6 °F 90% 30.06 in 1.5 mi ENE 13.8 mph 21.9 mph N/A Snow Light Snow
2:15 AM 21.2 °F 8.9 °F 17.6 °F 86% 30.07 in 2.5 mi ENE 12.7 mph 21.9 mph N/A Snow Light Snow
2:35 AM 21.0 °F 7.6 °F 16.3 °F 82% 30.08 in 10.0 mi ENE 15.0 mph 19.6 mph N/A   Overcast
2:55 AM 20.1 °F 6.9 °F 13.5 °F 75% 30.09 in 10.0 mi ENE 13.8 mph 20.7 mph N/A   Overcast
3:15 AM 19.0 °F 5.6 °F 12.2 °F 75% 30.10 in 10.0 mi ENE 13.8 mph 20.7 mph N/A   Overcast
3:35 AM 18.3 °F 4.1 °F 10.6 °F 72% 30.10 in 10.0 mi ENE 15.0 mph 18.4 mph N/A   Overcast
3:55 AM 17.6 °F 4.3 °F 9.7 °F 71% 30.10 in 10.0 mi ENE 12.7 mph 20.7 mph N/A   Overcast
4:15 AM 17.2 °F 3.9 °F 8.4 °F 68% 30.10 in 10.0 mi ENE 12.7 mph 21.9 mph N/A   Overcast
4:35 AM 16.7 °F 3.8 °F 8.1 °F 69% 30.11 in 10.0 mi East 11.5 mph 20.7 mph N/A   Overcast
4:55 AM 16.2 °F 2.5 °F 7.3 °F 68% 30.11 in 10.0 mi East 12.7 mph 20.7 mph N/A   Overcast
5:15 AM 15.8 °F 0.9 °F 7.7 °F 70% 30.12 in 10.0 mi East 15.0 mph 19.6 mph N/A   Overcast
5:35 AM 15.6 °F 3.2 °F 7.5 °F 70% 30.13 in 7.0 mi East 10.4 mph 21.9 mph N/A   Overcast
5:55 AM 15.1 °F 0.5 °F 7.5 °F 72% 30.13 in 7.0 mi East 13.8 mph 18.4 mph N/A   Overcast
6:15 AM 14.9 °F 0.9 °F 7.3 °F 72% 30.13 in 10.0 mi East 12.7 mph 18.4 mph N/A   Overcast
6:35 AM 14.5 °F -0.7 °F 6.6 °F 71% 30.14 in 10.0 mi East 15.0 mph 19.6 mph N/A   Overcast
6:55 AM 13.5 °F -0.2 °F 5.9 °F 72% 30.14 in 7.0 mi East 11.5 mph - N/A   Overcast
7:15 AM 12.9 °F -0.2 °F 5.0 °F 71% 30.15 in 5.0 mi East 10.4 mph 16.1 mph N/A   Haze
7:35 AM 12.2 °F 0.7 °F 4.1 °F 70% 30.16 in 10.0 mi East 8.1 mph - N/A   Overcast
7:55 AM 12.2 °F -0.2 °F 4.1 °F 70% 30.16 in 10.0 mi East 9.2 mph - N/A   Overcast
8:15 AM 11.8 °F 0.3 °F 4.3 °F 72% 30.16 in 10.0 mi East 8.1 mph - N/A   Overcast
8:35 AM 11.8 °F 2.5 °F 3.9 °F 71% 30.18 in 10.0 mi East 5.8 mph - N/A   Overcast
8:55 AM 11.8 °F 2.5 °F 3.9 °F 71% 30.19 in 10.0 mi East 5.8 mph - N/A   Overcast
9:15 AM 11.7 °F 0.0 °F 4.1 °F 72% 30.19 in 5.0 mi East 8.1 mph - N/A   Haze
9:35 AM 11.8 °F 0.3 °F 3.6 °F 69% 30.19 in 5.0 mi East 8.1 mph - N/A   Haze
9:55 AM 12.0 °F -0.4 °F 3.7 °F 69% 30.19 in 5.0 mi East 9.2 mph - N/A   Haze
10:15 AM 12.2 °F -0.2 °F 4.1 °F 70% 30.19 in 3.0 mi East 9.2 mph - N/A   Haze
10:35 AM 12.7 °F -0.4 °F 4.6 °F 70% 30.19 in 4.0 mi East 10.4 mph - N/A   Haze
10:55 AM 13.1 °F 0.1 °F 5.0 °F 70% 30.20 in 3.0 mi East 10.4 mph - N/A   Haze
11:15 AM 13.8 °F 1.0 °F 5.5 °F 70% 30.20 in 4.0 mi East 10.4 mph - N/A   Haze
11:35 AM 14.0 °F 1.2 °F 6.4 °F 72% 30.19 in 2.5 mi East 10.4 mph - N/A   Haze
11:55 AM 14.5 °F 2.7 °F 6.3 °F 70% 30.19 in 5.0 mi East 9.2 mph - N/A   Haze
12:15 PM 14.7 °F 3.8 °F 5.0 °F 65% 30.19 in 10.0 mi NE 8.1 mph - N/A   Overcast
12:35 PM 14.4 °F 4.3 °F 3.6 °F 62% 30.19 in 10.0 mi NE 6.9 mph - N/A   Mostly Cloudy
12:55 PM 14.2 °F 4.1 °F 3.0 °F 61% 30.18 in 10.0 mi NE 6.9 mph - N/A   Mostly Cloudy
1:15 PM 14.5 °F 4.6 °F 3.2 °F 61% 30.19 in 10.0 mi East 6.9 mph - N/A   Mostly Cloudy
1:35 PM 14.4 °F 3.3 °F 3.9 °F 63% 30.18 in 10.0 mi ENE 8.1 mph - N/A   Mostly Cloudy
1:55 PM 14.5 °F 5.7 °F 3.7 °F 62% 30.17 in 10.0 mi ENE 5.8 mph - N/A   Scattered Clouds
2:15 PM 14.7 °F 5.9 °F 3.4 °F 61% 30.16 in 10.0 mi NE 5.8 mph - N/A   Scattered Clouds
2:35 PM 14.9 °F 7.5 °F 3.7 °F 61% 30.16 in 10.0 mi ENE 4.6 mph - N/A   Scattered Clouds
2:55 PM 14.9 °F 7.5 °F 4.6 °F 64% 30.15 in 10.0 mi NE 4.6 mph - N/A   Scattered Clouds
3:15 PM 14.9 °F 6.1 °F 4.8 °F 64% 30.14 in 10.0 mi East 5.8 mph - N/A   Clear
3:35 PM 14.9 °F 7.5 °F 4.6 °F 64% 30.14 in 10.0 mi NE 4.6 mph - N/A   Clear
3:55 PM 15.6 °F 8.3 °F 5.2 °F 63% 30.14 in 10.0 mi East 4.6 mph - N/A   Clear
4:15 PM 15.3 °F 9.6 °F 5.2 °F 64% 30.13 in 10.0 mi NE 3.5 mph - N/A   Clear
4:35 PM 15.4 °F 8.1 °F 5.7 °F 65% 30.13 in 10.0 mi East 4.6 mph - N/A   Clear
4:55 PM 15.4 °F 6.8 °F 5.7 °F 65% 30.12 in 10.0 mi East 5.8 mph - N/A   Clear
5:15 PM 15.8 °F 10.2 °F 4.5 °F 61% 30.12 in 10.0 mi East 3.5 mph - N/A   Clear
5:35 PM 16.2 °F 9.0 °F 3.4 °F 57% 30.11 in 10.0 mi ESE 4.6 mph - N/A   Clear
5:55 PM 15.8 °F 10.2 °F 2.5 °F 56% 30.10 in 10.0 mi East 3.5 mph - N/A   Clear
6:15 PM 15.8 °F 10.2 °F 2.1 °F 55% 30.11 in 10.0 mi East 3.5 mph - N/A   Clear
6:35 PM 15.6 °F 10.0 °F 1.8 °F 54% 30.10 in 10.0 mi ENE 3.5 mph - N/A   Clear
6:55 PM 14.7 °F 7.3 °F 2.1 °F 57% 30.10 in 10.0 mi NE 4.6 mph - N/A   Clear
7:15 PM 13.6 °F 7.7 °F 3.0 °F 63% 30.10 in 10.0 mi NE 3.5 mph - N/A   Clear
7:35 PM 12.7 °F 6.7 °F 2.8 °F 65% 30.11 in 10.0 mi NE 3.5 mph - N/A   Clear
7:55 PM 11.3 °F - 2.3 °F 67% 30.10 in 10.0 mi Calm Calm - N/A   Clear
8:15 PM 10.4 °F - 2.5 °F 70% 30.09 in 10.0 mi Calm Calm - N/A   Clear
8:35 PM 10.2 °F - 3.2 °F 73% 30.09 in 10.0 mi Calm Calm - N/A   Clear
8:55 PM 8.4 °F - 3.2 °F 79% 30.08 in 10.0 mi Calm Calm - N/A   Clear
9:15 PM 6.4 °F - 3.6 °F 88% 30.07 in 10.0 mi Calm Calm - N/A   Clear
9:35 PM 7.0 °F - 4.5 °F 89% 30.07 in 10.0 mi Calm Calm - N/A   Clear
9:55 PM 4.8 °F - 1.2 °F 85% 30.06 in 10.0 mi Calm Calm - N/A   Clear
10:15 PM 6.1 °F - 3.0 °F 87% 30.05 in 10.0 mi Calm Calm - N/A   Scattered Clouds
10:35 PM 5.5 °F - 2.7 °F 88% 30.04 in 10.0 mi Calm Calm - N/A   Mostly Cloudy
10:55 PM 6.1 °F - 3.0 °F 87% 30.04 in 10.0 mi Calm Calm - N/A   Mostly Cloudy
11:15 PM 6.1 °F - 2.5 °F 85% 30.02 in 10.0 mi Calm Calm - N/A   Scattered Clouds
11:35 PM 5.4 °F -1.7 °F 2.5 °F 88% 30.01 in 10.0 mi NE 3.5 mph - N/A   Clear
11:55 PM 6.3 °F - 2.8 °F 86% 30.01 in 10.0 mi Calm Calm - N/A   Clear